Argentia, Canada

6:20 PM NDT on March 25, 2017 (GMT -0230)
Argentia

Weather History for CWAR - November, 2012

Change the Weather History Date:

Friday, November 23, 2012

  Actual Average Record
Temperature  
Mean Temperature 44 °F -  
Max Temperature 47 °F - - ()
Min Temperature 42 °F - - ()
Degree Days  
Heating Degree Days 20    
Moisture  
Dew Point 40 °F    
Average Humidity 82    
Maximum Humidity 93    
Minimum Humidity 68    
Precipitation  
Precipitation 0.00 in - - ()
Sea Level Pressure  
Sea Level Pressure 30.10 in    
Wind  
Wind Speed 16 mph ()    
Max Wind Speed 22 mph    
Max Gust Speed 28 mph    
T = Trace of Precipitation, MM = Missing Value Source: Averaged Metar Reports

Daily Weather History Graph

Daily Weather History Graph

Search for Another Location

Airport or City:

Trip Planner

Search our weather history database for the weather conditions in past years. The results will help you decide how hot, cold, wet, or windy it might be!

Date:

Astronomy

Nov. 23, 2012 Rise Set
Actual Time 7:22 AM NST 4:22 PM NST
Civil Twilight 6:48 AM NST 4:56 PM NST
Nautical Twilight 6:10 AM NST 5:34 PM NST
Astronomical Twilight 5:33 AM NST 6:11 PM NST
Moon 1:48 PM NST (11/23) 2:18 AM NST (11/23)
Length of Visible Light 10h 08m
Length of Day
9h 00m
Waxing Gibbous, 79% of the Moon is Illuminated
Nov 23
Waxing Gibbous
Nov 28
Full
Dec 6
Last Quarter
Dec 13
New
Dec 20
First Quarter

Hourly Weather History & Observations

Time (NST) Temp. Windchill Dew Point Humidity Pressure Visibility Wind Dir Wind Speed Gust Speed Precip Events Conditions
12:30 AM 43.0 °F 34.8 °F 36.1 °F 77% 30.18 in - WSW 18.4 mph - N/A   Unknown
1:30 AM 43.2 °F 35.3 °F 36.9 °F 78% 30.17 in - WSW 17.3 mph - N/A   Unknown
2:30 AM 44 °F - 37 °F 68% 30.17 in - WSW 18.4 mph - -  
2:30 AM 43.5 °F 35.5 °F 37.0 °F 78% 30.17 in - WSW 18.4 mph 24.2 mph N/A   Unknown
3:30 AM 43.3 °F 35.0 °F 37.0 °F 78% 30.15 in - WSW 19.6 mph - N/A   Unknown
4:30 AM 43.3 °F 35.5 °F 37.2 °F 79% 30.16 in - WSW 17.3 mph 24.2 mph N/A   Unknown
5:30 AM 43 °F - 37 °F 73% 30.15 in - WSW 20.7 mph - -  
5:30 AM 43.3 °F 34.7 °F 37.2 °F 79% 30.15 in - WSW 20.7 mph - N/A   Unknown
6:30 AM 43.0 °F 34.5 °F 37.4 °F 81% 30.14 in - SW 19.6 mph - N/A   Unknown
7:30 AM 43.0 °F 34.5 °F 37.6 °F 81% 30.14 in - SW 19.6 mph - N/A   Unknown
8:30 AM 44 °F - 37 °F 70% 30.15 in - WSW 21.9 mph - -  
8:30 AM 43.9 °F 35.2 °F 37.4 °F 78% 30.15 in - WSW 21.9 mph 27.6 mph N/A   Unknown
9:30 AM 45.0 °F 36.9 °F 38.8 °F 79% 30.14 in - WSW 20.7 mph - N/A   Unknown
10:30 AM 45.3 °F 37.1 °F 38.7 °F 78% 30.13 in - SW 21.9 mph - N/A   Unknown
11:30 AM 47 °F - 41 °F 71% 30.11 in - SW 21.9 mph - -  
11:30 AM 46.8 °F - 40.6 °F 79% 30.11 in - SW 21.9 mph - N/A   Unknown
12:30 PM 46.6 °F - 41.2 °F 81% 30.08 in - SW 20.7 mph - N/A   Unknown
1:30 PM 46.9 °F - 41.7 °F 82% 30.06 in - SW 17.3 mph - N/A   Unknown
2:30 PM 46 °F - 43 °F 85% 30.05 in - SW 17.3 mph - -  
2:30 PM 46.4 °F 39.5 °F 43.0 °F 88% 30.05 in - SW 17.3 mph - N/A   Unknown
3:30 PM 45.9 °F 39.1 °F 42.6 °F 88% 30.06 in - SW 16.1 mph - N/A   Unknown
4:30 PM 45.9 °F 39.1 °F 41.9 °F 86% 30.05 in - SW 16.1 mph - N/A   Unknown
5:30 PM 44 °F - 42 °F 90% 30.05 in - SSW 10.4 mph - -  
5:30 PM 44.4 °F 39.0 °F 42.1 °F 91% 30.05 in - SSW 10.4 mph - N/A   Unknown
6:30 PM 44.4 °F 37.9 °F 42.6 °F 93% 30.04 in - SSW 13.8 mph - N/A   Unknown
7:30 PM 43.0 °F 37.2 °F 40.1 °F 90% 30.05 in - SSW 10.4 mph - N/A   Unknown
8:30 PM 43 °F - 40 °F 85% 30.04 in - SSW 11.5 mph - -  
8:30 PM 43.3 °F 37.2 °F 40.1 °F 88% 30.04 in - SSW 11.5 mph - N/A   Unknown
9:30 PM 43.7 °F 37.7 °F 40.8 °F 90% 30.04 in - South 11.5 mph - N/A   Unknown
10:30 PM 43.7 °F 38.1 °F 40.8 °F 90% 30.01 in - South 10.4 mph - N/A   Unknown
11:30 PM 44 °F - 41 °F 83% 30.01 in - South 10.4 mph - -  
11:30 PM 43.5 °F 37.9 °F 40.6 °F 90% 30.01 in - South 10.4 mph - N/A   Unknown